Location: Endfield
(51.6667°N, 0.0667°W)
Time: 12:05:08
(UTC+00:00)

MOS 1 Rocket - Pass Details

Date: 19 May 2024
Orbit: 612 x 821 km, 97.5° (Epoch: 14 June)

Event Time Altitude Azimuth Distance (km) Brightness Sun altitude
Exits shadow 21:13:57 12° 158° (SSE) 2,142 5.2 -10.0°
Maximum altitude 21:18:40 78° 74° (ENE) 800 3.5 -10.4°
Drops below altitude 10° 21:23:58 10° 349° (N) 2,388 7.2 -10.9°
Sets 21:26:22 0° 348° (NNW) 3,341 8.2 -11.1°
